THOR ABLESTAR DEB, 253

Orbit data source: Space-Track

THOR ABLESTAR DEB, 253 is space debris in LEO originally from a launch on Thu, 29 Jun 1961 UTC launched from the Air Force Eastern Test Range (AFETR). Debris objects in space refer to the collection of defunct objects orbiting the Earth. Examples of debris include non-operational satellites, rocket bodies, and fragments generated from explosions, collisions, or faulty payload assembly.

Loading next visibility...
Identifier
253, 1961-015CE
Orbit
LEO
Last TLE update
15 hours ago
Origin
Manufacturer
Unknown
Mission
Spacecraft
Bus & Motor
Unknown
Mass
Unknown
Launch date (UTC)
1961-06-29 (64 years ago)
Launch vehicle
Unknown
Launch site
Air Force Eastern Test Range (AFETR)
Object type
Payload
Rocket body
Debris
Shape & HBR
Unknown
Radar Cross Section
Small (<0.1 m²)

Expand to show TLE details & history

TLE from 15 hours ago
0 THOR ABLESTAR DEB
1 00253U 61015CE  25181.74467193  .00022222  00000-0  14767-2 0  9998
2 00253  66.9124 306.9658 0019078 308.7495  51.1939 15.07039264326486
Epoch: 2025-06-30T17:52Z
TLE epoch observation values (Epoch: 2025-06-30T17:52:19.654Z)
Latitude
0.00002°
Longitude
119.83384°
Altitude
539.189 km
Speed
7.598 km/s
True Right ascension
20h 27m 51s
True Declination
0° 00' 00"
Sunlit
Object was in full shadow at epoch
Visualization orbit readout
Latitude
-61.54611°
Longitude
-10.57921°
Altitude
560.501 km
Speed
7.584 km/s
Apparent Right ascension
10h 05m 01s
Apparent Declination
-52° 51' 44"
Sunlit
Object is in daylight
Visualization observer readout
Local Sidereal Time
20:57:48
Azimuth
215.959° SW
Elevation
-72.71°
Doppler factor
1
Orbital elements
Apogee altitude
556.749 km
Perigee altitude
530.339 km
Semi-major axis
6,921.681 km
Eccentricity
0.00191
Inclination
66.9124°
RAAN
306.9658°
Arg. of periapsis
308.7495°
True anomaly
Unknown
Mean anomaly
51.1939°
Eccentric anomaly
Unknown
Mean motion
3.769 °/min
Orbital period
95.52 mins
BSTAR
0.0014767
Loading maneuver chart data...
Loading SW <> Apogee altitude chart data...

THOR ABLESTAR DEB Visibility forecast

Observer location: undefined°, undefined°

Span
Click to sort rows by Start time (UTC) header in descending order
Start Az.
Max El. time (UTC)
Max El. Az.
Max El.
End time (UTC)
End Az.
7 mins2025-07-01 09:56:32.617Z202.193° SSW2025-07-01 09:59:32.617Z119.218° SE44.442°2025-07-01 10:03:32.617Z31.374° NE
5 mins2025-07-01 18:18:32.617Z12.46° NNE2025-07-01 18:20:32.617Z55.76° ENE23.77°2025-07-01 18:23:32.617Z107.818° ESE
5 mins2025-07-01 19:56:32.617Z290.23° WNW2025-07-01 19:58:32.617Z246.248° WSW24.407°2025-07-01 20:01:32.617Z194.106° SSW
|